Regional Weather Roundup
Issued by NWS

Home | Current Version | Previous Version | Graphics & Text | Print | Product List | Glossary On
Versions: 1 2 3 4 5 6 7 8 9 10 11 12 13 14 15 16 17 18 19 20 21 22 23 24 25 26 27 28 29 30 31 32 33 34 35 36 37 38 39 40 41 42 43 44 45 46 47 48 49 50
000
ASUS43 KFSD 260802
RWRSD

WEATHER ROUNDUP FOR SOUTH DAKOTA
NATIONAL WEATHER SERVICE SIOUX FALLS SD
300 AM CDT THU MAY 26 2016

NOTE: "FAIR" INDICATES FEW OR NO CLOUDS BELOW 12,000 FEET WITH NO
SIGNIFICANT WEATHER AND/OR OBSTRUCTIONS TO VISIBILITY.


SDZ001>005-009-010-012>017-260900-
NORTHWEST AND NORTH CENTRAL SOUTH DAKOTA

CITY           SKY/WX    TMP DP  RH WIND       PRES   REMARKS
BUFFALO          N/A     47  40  76 W5        29.81S
FAITH            N/A     47  41  80 SW6       29.87R
MOBRIDGE       CLEAR     51  47  86 SE5       29.82R
$$

SDZ012>016-024>037-041>051-057-063-072>074-260900-
SOUTHWEST AND SOUTH CENTRAL SOUTH DAKOTA

CITY           SKY/WX    TMP DP  RH WIND       PRES   REMARKS
RAPID CTY ARPT CLEAR     46  43  89 CALM      29.90S
PIERRE         CLEAR     53  48  83 W5        29.84R
CUSTER         CLEAR     40  37  89 NW6       29.96S
ELLSWORTH AFB  CLEAR     49  45  87 NW3       29.89S
PHILIP         CLOUDY    49  47  93 W7        29.87F
PINE RIDGE     CLEAR     42  39  89 W3        29.90S
WINNER         FAIR      53  49  86 SW6       29.87F
$$

SDZ004>011-016>023-039-040-260900-
NORTHEAST SOUTH DAKOTA

CITY           SKY/WX    TMP DP  RH WIND       PRES   REMARKS
ABERDEEN       CLEAR     53  49  86 W7        29.79S
WATERTOWN      CLOUDY    58  53  84 W12       29.79S
BROOKINGS      CLOUDY    55  52  89 S6        29.81R
SISSETON         N/A     59  54  83 W18       29.70F
$$

SDZ017-020-022-023-036>040-048>070-260900-
SOUTHEAST SOUTH DAKOTA

CITY           SKY/WX    TMP DP  RH WIND       PRES   REMARKS
SIOUX FALLS    CLOUDY    59  56  89 W3        29.80S
HURON          PTCLDY    54  50  86 W7        29.83R
MITCHELL       PTCLDY    60  53  77 NW8       29.84R
YANKTON        CLOUDY    59  55  88 W9        29.82F
$$

ABBREVIATIONS USED IN REMARKS
   TC - TEMPERATURE IN CELSIUS
  WCI - WIND CHILL INDEX
   HX - HEAT INDEX
  VSB - VISIBILITY




USA.gov is the U.S. government's official web portal to all federal, state and local government web resources and services.